Weather History for Newport, VT

Change the Weather History Date:

Wednesday, September 11, 2013

  Actual Average Record
Temperature  
Mean Temperature 76 °F -  
Max Temperature 86 °F 69 °F 90 °F (1931)
Min Temperature 64 °F 49 °F 32 °F (1967)
Cooling Degree Days 10    
Growing Degree Days 26 (Base 50)    
Moisture  
Dew Point 64 °F    
Average Humidity 75    
Maximum Humidity 91    
Minimum Humidity 46    
Precipitation  
Precipitation 0.00 in - - ()
Sea Level Pressure  
Sea Level Pressure 29.98 in    
Wind  
Wind Speed 8 mph (SSW)    
Max Wind Speed 18 mph    
Max Gust Speed 29 mph    
Visibility 8 miles    
Events Rain    
Averages and records for this station are not official NWS values.
T = Trace of Precipitation, MM = Missing Value Source: NWS Daily Summary

Daily Weather History Graph

Daily Weather History Graph

Search for Another Location

Airport:

Trip Planner

Search our weather history database for the weather conditions in past years. The results will help you decide how hot, cold, wet, or windy it might be!

Date:

Astronomy

Sep. 11, 2013 Rise Set
Actual Time 6:23 AM EDT 7:06 PM EDT
Civil Twilight 5:53 AM EDT 7:36 PM EDT
Nautical Twilight 5:18 AM EDT 8:11 PM EDT
Astronomical Twilight 4:41 AM EDT 8:48 PM EDT
Moon 1:05 PM EDT (9/11) 10:43 PM EDT (9/11)
Length of Visible Light 13h 42m
Length of Day
12h 43m
Waxing Crescent, 38% of the Moon is Illuminated
Sep 11
Waxing Crescent
Sep 12
First Quarter
Sep 19
Full
Sep 26
Last Quarter
Oct 4
New

Hourly Weather History & Observations

Time (EDT) Temp. Heat Index Dew Point Humidity Pressure Visibility Wind Dir Wind Speed Gust Speed Precip Events Conditions
12:15 AM 67.5 °F - 62.6 °F 84% 30.02 in 10.0 mi SSW 3.5 mph - N/A   Mostly Cloudy
12:35 AM 67.3 °F - 63.0 °F 86% 30.00 in 10.0 mi South 9.2 mph - N/A   Mostly Cloudy
12:55 AM 67.3 °F - 62.8 °F 85% 29.99 in 10.0 mi South 5.8 mph - N/A   Clear
1:15 AM 67.1 °F - 62.8 °F 86% 29.99 in 10.0 mi South 6.9 mph - N/A   Clear
1:35 AM 66.9 °F - 62.8 °F 87% 30.00 in 7.0 mi South 5.8 mph - N/A   Scattered Clouds
1:55 AM 66.6 °F - 63.5 °F 90% 30.01 in 3.0 mi SSE 4.6 mph - N/A Rain Light Rain
2:15 AM 67.1 °F - 63.7 °F 89% 30.03 in 7.0 mi NNW 6.9 mph 20.7 mph N/A   Overcast
2:35 AM 67.6 °F - 64.0 °F 88% 30.01 in 7.0 mi SSE 6.9 mph - N/A   Overcast
2:55 AM 66.7 °F - 63.5 °F 89% 30.00 in 7.0 mi SSE 9.2 mph - N/A   Scattered Clouds
3:15 AM 66.6 °F - 63.1 °F 89% 30.00 in 7.0 mi South 5.8 mph - N/A   Clear
3:35 AM 66.2 °F - 63.0 °F 89% 29.99 in 5.0 mi SSW 3.5 mph - N/A   Clear
3:55 AM 65.7 °F - 62.8 °F 90% 29.99 in 5.0 mi South 3.5 mph - N/A   Clear
4:15 AM 65.7 °F - 63.0 °F 91% 29.99 in 4.0 mi SSW 4.6 mph - N/A   Clear
4:35 AM 66.7 °F - 64.0 °F 91% 29.99 in 5.0 mi South 5.8 mph - N/A   Clear
4:55 AM 67.3 °F - 64.4 °F 90% 29.99 in 7.0 mi South 8.1 mph - N/A   Clear
5:15 AM 67.5 °F - 64.4 °F 90% 29.99 in 5.0 mi South 8.1 mph - N/A   Clear
5:35 AM 67.5 °F - 64.4 °F 90% 29.99 in 5.0 mi South 8.1 mph - N/A   Clear
5:55 AM 67.6 °F - 64.6 °F 90% 30.00 in 7.0 mi South 4.6 mph - N/A   Clear
6:15 AM 68.0 °F - 64.6 °F 89% 30.00 in 7.0 mi South 8.1 mph - N/A   Clear
6:35 AM 68.0 °F - 64.6 °F 89% 30.01 in 7.0 mi South 11.5 mph - N/A   Clear
6:55 AM 68.0 °F - 64.6 °F 89% 30.00 in 5.0 mi South 9.2 mph - N/A   Clear
7:15 AM 68.4 °F - 64.8 °F 88% 30.01 in 5.0 mi South 4.6 mph - N/A   Clear
7:35 AM 69.1 °F - 65.3 °F 88% 30.01 in 5.0 mi South 5.8 mph - N/A   Clear
7:55 AM 70.0 °F - 65.7 °F 86% 30.01 in 7.0 mi SSE 6.9 mph - N/A   Clear
8:15 AM 71.1 °F - 66.2 °F 85% 30.02 in 7.0 mi SSE 6.9 mph - N/A   Clear
8:35 AM 72.5 °F - 66.6 °F 82% 30.01 in 10.0 mi SSE 8.1 mph - N/A   Clear
8:55 AM 74.1 °F - 67.3 °F 79% 30.01 in 10.0 mi South 4.6 mph - N/A   Clear
9:15 AM 75.6 °F - 68.0 °F 77% 30.01 in 10.0 mi South 6.9 mph - N/A   Clear
9:35 AM 77.0 °F - 67.8 °F 73% 30.01 in 10.0 mi SSE 8.1 mph - N/A   Clear
9:55 AM 78.3 °F - 68.5 °F 72% 30.01 in 10.0 mi South 5.8 mph - N/A   Clear
10:15 AM 80.1 °F 82.4 °F 67.3 °F 65% 30.00 in 10.0 mi SSW 8.1 mph 16.1 mph N/A   Clear
10:35 AM 80.6 °F 82.9 °F 66.9 °F 63% 29.99 in 10.0 mi SSW 13.8 mph 18.4 mph N/A   Clear
10:55 AM 81.3 °F 83.6 °F 66.6 °F 61% 29.99 in 10.0 mi SSW 13.8 mph - N/A   Clear
11:15 AM 82.4 °F 84.6 °F 66.4 °F 58% 29.98 in 10.0 mi WSW 10.4 mph - N/A   Clear
11:35 AM 83.3 °F 85.7 °F 66.4 °F 57% 29.98 in 10.0 mi SW 12.7 mph - N/A   Clear
11:55 AM 83.7 °F 85.5 °F 65.3 °F 54% 29.97 in 10.0 mi SW 9.2 mph 17.3 mph N/A   Clear
12:15 PM 84.2 °F 86.3 °F 65.7 °F 54% 29.96 in 10.0 mi SSW 10.4 mph 19.6 mph N/A   Clear
12:35 PM 85.1 °F 86.4 °F 64.2 °F 49% 29.96 in 10.0 mi SW 12.7 mph 18.4 mph N/A   Clear
12:55 PM 85.5 °F 86.6 °F 63.7 °F 48% 29.96 in 10.0 mi SW 11.5 mph 18.4 mph N/A   Clear
1:15 PM 86.0 °F 87.1 °F 63.3 °F 47% 29.96 in 10.0 mi SW 18.4 mph 25.3 mph N/A   Clear
1:35 PM 86.0 °F 86.8 °F 63.1 °F 46% 29.95 in 10.0 mi SW 15.0 mph 21.9 mph N/A   Clear
1:55 PM 86.2 °F 87.3 °F 63.9 °F 47% 29.95 in 10.0 mi SW 13.8 mph 25.3 mph N/A   Clear
2:15 PM 86.2 °F 87.3 °F 63.7 °F 47% 29.95 in 10.0 mi WSW 18.4 mph 28.8 mph N/A   Scattered Clouds
2:35 PM 85.1 °F 86.4 °F 63.7 °F 49% 29.95 in 10.0 mi SW 16.1 mph 24.2 mph N/A   Mostly Cloudy
2:55 PM 85.6 °F 87.1 °F 64.6 °F 49% 29.94 in 10.0 mi WSW 16.1 mph 23.0 mph N/A   Mostly Cloudy
3:15 PM 85.1 °F 86.9 °F 65.3 °F 51% 29.94 in 10.0 mi SW 17.3 mph 21.9 mph N/A   Mostly Cloudy
3:35 PM 85.6 °F 88.2 °F 66.7 °F 53% 29.93 in 10.0 mi SW 10.4 mph 20.7 mph N/A   Scattered Clouds
3:55 PM 85.3 °F 87.9 °F 66.7 °F 54% 29.92 in 10.0 mi SW 12.7 mph 18.4 mph N/A   Clear
4:15 PM 85.5 °F 87.6 °F 66.2 °F 52% 29.92 in 10.0 mi SW 16.1 mph 23.0 mph N/A   Clear
4:35 PM 82.9 °F 85.2 °F 66.4 °F 57% 29.92 in 10.0 mi SW 10.4 mph - N/A   Clear
4:55 PM 82.4 °F 84.8 °F 66.6 °F 59% 29.91 in 10.0 mi SW 9.2 mph - N/A   Clear
5:15 PM 83.3 °F 86.4 °F 68.0 °F 60% 29.91 in 10.0 mi SW 8.1 mph - N/A   Clear
5:35 PM 83.3 °F 86.4 °F 68.0 °F 60% 29.90 in 10.0 mi SSW 8.1 mph - N/A   Clear
5:55 PM 82.8 °F 85.5 °F 67.5 °F 60% 29.91 in 10.0 mi South 5.8 mph - N/A   Scattered Clouds
6:15 PM 79.5 °F - 66.9 °F 65% 29.89 in 10.0 mi ESE 3.5 mph - N/A   Scattered Clouds
6:55 PM 68.9 °F - 62.8 °F 81% 29.95 in 10.0 mi West 6.9 mph - N/A Rain Light Rain
7:15 PM 68.5 °F - 62.1 °F 80% 29.96 in 10.0 mi ESE 9.2 mph - N/A   Clear
7:35 PM 67.1 °F - 62.6 °F 85% 29.97 in 10.0 mi South 8.1 mph - N/A   Clear
7:55 PM 68.9 °F - 62.2 °F 79% 29.97 in 10.0 mi South 5.8 mph - N/A   Clear
8:15 PM 68.0 °F - 62.6 °F 83% 29.98 in 10.0 mi South 4.6 mph - N/A   Clear
8:35 PM 67.3 °F - 62.8 °F 85% 30.00 in 10.0 mi SW 4.6 mph - N/A   Mostly Cloudy
8:55 PM 66.7 °F - 63.1 °F 88% 29.97 in 7.0 mi SW 5.8 mph - N/A Rain Heavy Rain
9:15 PM 65.3 °F - 59.9 °F 83% 29.96 in 1.5 mi SW 3.5 mph 27.6 mph N/A Rain Rain
9:35 PM 65.7 °F - 61.0 °F 85% 30.03 in 7.0 mi WNW 10.4 mph - N/A Rain Heavy Rain
9:55 PM 68.0 °F - 63.7 °F 86% 29.99 in 7.0 mi South 3.5 mph - N/A Rain Light Rain
10:15 PM 67.3 °F - 63.7 °F 88% 29.96 in 5.0 mi NE 5.8 mph - N/A Rain Rain
10:35 PM 66.2 °F - 63.5 °F 91% 29.99 in 5.0 mi SSE 9.2 mph - N/A Rain Rain
10:55 PM 66.0 °F - 62.6 °F 89% 30.01 in 10.0 mi South 8.1 mph - N/A Rain Light Rain
11:15 PM 65.3 °F - 62.1 °F 89% 29.99 in 5.0 mi SSE 4.6 mph - N/A Rain Rain
11:35 PM 65.1 °F - 62.1 °F 90% 29.98 in 10.0 mi Calm Calm - N/A Rain Light Rain
11:55 PM 64.8 °F - 62.1 °F 91% 29.97 in 7.0 mi Calm Calm - N/A   Overcast